Find Starlink 36387

NORAD ID: 67610 Int'l Des: 2026-018 Owner: SPXS Country: US Constellation: starlink operational
LEOCIRCULARRETROGRADE

Current View

Loading 3D Globe...

About Starlink 36387

Description loading...

Upcoming Passes

Passes for default location (London). Set your location on the main map for personalized predictions.

Altitude History

Loading altitude history...

Two-Line Element Set

1 67610U 26018X 26146.17930567 .00001009 00000-0 76010-5 0 9993
2 67610 97.2842 215.9359 0001509 13.9971 346.1335 15.75283319 19518
Epoch: May 26, 2026 • Age: 14 hours

Current Status

Altitude 362.2 km
Velocity 7.69 km/s
Sub-Earth Point -48.54°S, 73.23°E
Launch Date Jan 29, 2026
Age 0.3 years
Type internet

Technical Details

Classification Payload
Mass 575.00 kg
Dry Mass 530.00 kg
Total Mass 575.00 kg
Length 0.30 m
Diameter 4.10 m
Span 29.00 m
Shape Box + pan
Manufacturer SPXS
Bus Type Starlink V2MO
Phase Status In Orbit
Owner/State SPXS/US

Most Searched